Content
SEND FEEDBACK

Daily
Averages
Monthly
Summary
United States of America

NUA'AILUA BAY, HAWAII


Home > North America > United States > Hawaii
Elevation: 3170 feet     Latitude: 20 50N     Longitude: 156 14W

WEATHER
 
SELECT A DAY
Number of Records: 220,055;   Date Range: 1/1/95 - 9/30/14
 
SHARE

PRINT THIS DATA

[ ← Previous Day ]
WEATHER ALMANAC - FEBRUARY 5, 2013
[ Next Day → ]
[ °C ]   °F
Weather ElementAverageHighLow
Temperature71.2 °F77 °F (11:54 am)66 °F (4:54 am)
Dewpoint61.6 °F64.9 °F (10:54 pm)57.9 °F (2:54 pm)
Humidity72.4 %88 % (9:54 pm)52 % (2:54 pm)
Barometer30.08 in30.12 in (8:54 am)30.01 in (2:54 pm)
Wind Speed12.2 mph21.9 mph (3:54 pm)
Wind Gust32.2 mph (1:54 pm)
Weather ElementAverage
Visibility9.7 mi
Wind DirectionENE (53.2 °)

Weather ElementTotal
Precipitation0.19 in
Cooling Degree Days6.5 (Base 65)
Growing Degree Days21.5 (Base 50)
Averaged from 25 records on February 5, 2013
WEATHER CONDITIONS BREAKOUT
WIND DIRECTION BREAKOUT
WEATHER BY HOUR - FEBRUARY 5, 2013
[ °C ]   °F
Local TimeTemperatureDewpointHumidityBarometerVisibilityWind DirectionWind SpeedGust SpeedPrecipitationEventsConditions
1:54 AM70.0 °F61.0 °F73 %30.10 in10.0 miENE (60°)13.8 mph21.9 mphMostly Cloudy
2:54 AM68.0 °F62.1 °F81 %30.09 in10.0 miEast (80°)4.6 mph0.00 inRainLight Rain
3:54 AM69.1 °F61.0 °F75 %30.08 in10.0 miENE (60°)11.5 mph0.00 inOvercast
4:54 AM66.0 °F60.1 °F81 %30.09 in10.0 miEast (80°)9.2 mphClear
5:54 AM66.0 °F60.1 °F81 %30.08 in10.0 miNNE (30°)5.8 mphClear
6:54 AM68.0 °F61.0 °F78 %30.10 in10.0 miNE (40°)11.5 mphScattered Clouds
7:54 AM70.0 °F60.1 °F71 %30.11 in10.0 miNE (50°)13.8 mphClear
8:54 AM72.0 °F61.0 °F68 %30.12 in10.0 miNE (50°)9.2 mph19.6 mphScattered Clouds
9:54 AM73.9 °F61.0 °F64 %30.12 in10.0 miENE (70°)15.0 mph24.2 mphScattered Clouds
10:54 AM75.0 °F62.1 °F64 %30.11 in10.0 miNE (50°)19.6 mph27.6 mphScattered Clouds
11:54 AM77.0 °F61.0 °F58 %30.09 in10.0 miEast (80°)15.0 mph26.5 mphScattered Clouds
12:54 PM75.0 °F61.0 °F62 %30.06 in10.0 miENE (70°)20.7 mph29.9 mph0.00 inScattered Clouds
1:54 PM77.0 °F59.0 °F54 %30.03 in10.0 miENE (70°)15.0 mph32.2 mphScattered Clouds
2:54 PM77.0 °F57.9 °F52 %30.01 in10.0 miEast (80°)18.4 mph31.1 mphScattered Clouds
3:54 PM75.9 °F62.1 °F62 %30.02 in10.0 miENE (60°)21.9 mph29.9 mphScattered Clouds
4:54 PM75.0 °F63.0 °F66 %30.04 in10.0 miNE (50°)17.3 mph25.3 mphScattered Clouds
5:54 PM72.0 °F62.1 °F71 %30.05 in10.0 miENE (60°)17.3 mph24.2 mphScattered Clouds
6:54 PM71.1 °F61.0 °F70 %30.06 in10.0 miENE (60°)13.8 mphScattered Clouds
7:54 PM69.1 °F60.1 °F73 %30.09 in10.0 miENE (60°)12.7 mphClear
8:54 PM70.0 °F61.0 °F73 %30.12 in10.0 miNE (40°)12.7 mphScattered Clouds
9:54 PM68.0 °F64.4 °F88 %30.11 in10.0 miNorth (10°)9.2 mphScattered Clouds
10:54 PM69.1 °F64.9 °F87 %30.11 in10.0 miNE (50°)10.4 mphPartly Cloudy
11:30 PM69.8 °F64.4 °F83 %30.09 in4.0 miENE (70°)6.9 mph0.03 inRainHeavy Rain
11:47 PM68.0 °F64.4 °F88 %30.09 in9.0 miCalm0.08 inRainLight Rain
11:54 PM68.0 °F64.0 °F87 %30.10 in10.0 miCalm0.08 inOvercast
Hourly data recorded from PHOG, located miles away from Nua'ailua Bay, Hawaii







STORIES FROM OUR PARTNERS